Atlantic City, NJ

6:19 PM EDT on April 28, 2017 (GMT -0400)
Atlantic City International

Weather History for KACY - October, 2011

Change the Weather History Date:

Friday, October 21, 2011

  Actual Average Record
Temperature  
Mean Temperature 54 °F 54 °F  
Max Temperature 62 °F 65 °F 85 °F (1947)
Min Temperature 46 °F 44 °F 26 °F (1972)
Degree Days  
Heating Degree Days 11 11  
Month to date heating degree days 81 171  
Since 1 July heating degree days 109 233  
Cooling Degree Days 0 0  
Month to date cooling degree days 15 16  
Year to date cooling degree days 1465 1050  
Growing Degree Days 6 (Base 50)    
Moisture  
Dew Point 41 °F    
Average Humidity 60    
Maximum Humidity 77    
Minimum Humidity 42    
Precipitation  
Precipitation 0.00 in 0.11 in 2.65 in (1906)
Month to date precipitation 1.40 2.30  
Year to date precipitation 38.76 33.67  
Snow  
Snow 0.00 in 0.00 in 0.00 in ()
Month to date snowfall 0.0 0.0  
Since 1 July snowfall 0.0 0.0  
Since 1 September snowfall 0.0 0.0  
Snow Depth 0.00 in    
Sea Level Pressure  
Sea Level Pressure 29.96 in    
Wind  
Wind Speed 8 mph (West)    
Max Wind Speed 20 mph    
Max Gust Speed 29 mph    
Visibility 10 miles    
Events      
T = Trace of Precipitation, MM = Missing Value Source: NWS Daily Summary

Daily Weather History Graph

Daily Weather History Graph

Search for Another Location

Airport or City:

Trip Planner

Search our weather history database for the weather conditions in past years. The results will help you decide how hot, cold, wet, or windy it might be!

Date:

Astronomy

Oct. 21, 2011 Rise Set
Actual Time 7:14 AM EDT 6:11 PM EDT
Civil Twilight 6:46 AM EDT 6:38 PM EDT
Nautical Twilight 6:15 AM EDT 7:09 PM EDT
Astronomical Twilight 5:44 AM EDT 7:40 PM EDT
Moon 1:03 AM EDT (10/21) 2:52 PM EDT (10/21)
Length of Visible Light 11h 51m
Length of Day
10h 56m
Waning Crescent, 34% of the Moon is Illuminated
Oct 21
Waning Crescent
Oct 26
New
Nov 2
First Quarter
Nov 10
Full
Nov 18
Last Quarter

Hourly Weather History & Observations

Time (EDT) Temp. Dew Point Humidity Pressure Visibility Wind Dir Wind Speed Gust Speed Precip Events Conditions
12:54 AM 55.9 °F 43.0 °F 62% 29.79 in 10.0 mi SW 9.2 mph - N/A   Clear
1:54 AM 55.0 °F 43.0 °F 64% 29.81 in 10.0 mi SW 6.9 mph - N/A   Clear
2:54 AM 54.0 °F 43.0 °F 66% 29.83 in 10.0 mi WSW 8.1 mph - N/A   Clear
3:54 AM 52.0 °F 42.1 °F 69% 29.85 in 10.0 mi SSW 5.8 mph - N/A   Clear
4:54 AM 52.0 °F 42.1 °F 69% 29.87 in 10.0 mi SW 6.9 mph - N/A   Clear
5:54 AM 50.0 °F 41.0 °F 71% 29.90 in 10.0 mi SW 5.8 mph - N/A   Clear
6:54 AM 50.0 °F 41.0 °F 71% 29.92 in 10.0 mi SW 6.9 mph - N/A   Clear
7:54 AM 51.1 °F 42.1 °F 71% 29.94 in 10.0 mi WSW 8.1 mph - N/A   Clear
8:54 AM 54.0 °F 41.0 °F 62% 29.96 in 10.0 mi WSW 12.7 mph - N/A   Clear
9:54 AM 57.0 °F 39.9 °F 53% 29.96 in 10.0 mi West 12.7 mph 21.9 mph N/A   Clear
10:54 AM 60.1 °F 39.0 °F 46% 29.97 in 10.0 mi West 15.0 mph 20.7 mph N/A   Clear
11:54 AM 62.1 °F 39.9 °F 44% 29.98 in 10.0 mi West 13.8 mph 20.7 mph N/A   Partly Cloudy
12:54 PM 60.1 °F 37.0 °F 42% 29.97 in 10.0 mi WNW 16.1 mph 23.0 mph N/A   Scattered Clouds
1:54 PM 60.1 °F 39.0 °F 46% 29.96 in 10.0 mi NW 13.8 mph 24.2 mph N/A   Mostly Cloudy
2:54 PM 59.0 °F 39.0 °F 48% 29.97 in 10.0 mi WNW 10.4 mph - N/A   Mostly Cloudy
3:54 PM 59.0 °F 39.9 °F 49% 29.99 in 10.0 mi WNW 9.2 mph - N/A   Overcast
4:54 PM 57.9 °F 39.9 °F 51% 30.00 in 10.0 mi WNW 6.9 mph - N/A   Overcast
5:54 PM 57.0 °F 42.1 °F 57% 30.01 in 10.0 mi NW 3.5 mph - N/A   Overcast
6:54 PM 55.9 °F 42.1 °F 60% 30.04 in 10.0 mi West 4.6 mph - N/A   Overcast
7:54 PM 55.9 °F 41.0 °F 57% 30.05 in 10.0 mi West 6.9 mph - N/A   Overcast
8:54 PM 53.1 °F 42.1 °F 66% 30.06 in 10.0 mi West 3.5 mph - N/A   Clear
9:54 PM 51.1 °F 41.0 °F 68% 30.07 in 10.0 mi West 4.6 mph - N/A   Clear
10:54 PM 50.0 °F 41.0 °F 71% 30.08 in 10.0 mi WSW 5.8 mph - N/A   Clear
11:54 PM 48.0 °F 41.0 °F 77% 30.08 in 10.0 mi WSW 5.8 mph - N/A   Clear